1st Responders/1st Detectors/Storm Spotters Weather Summary for Carroll County, KY

Forecast Maps


Reg. NEXRAD Animation


National Fire Danger: Day 1 & 2 Map

Current NWS Watch/Warnings

SPC Convective Day 1 Outlook


Day 2 Outlook

(Click images to enlarge|Page will refresh every 5 minutes)
UK Ag. Weather Center Desktop Severe Weather Service[HERE]
Carroll County, KY Hazardous Weather Outlook Webcast
(9 AM to 9 PM Mon-Fri)
[Fast]
[Dial-up]


UKAWC 1st Detectors/1st Responders Precision Weather Forecast For CARROLL County, Kentucky
(based on the NWS County Digital Forecast)

ISSUED AT 14:00 UTC ON WEDNESDAY NOV 21 2018
DAY WEDNESDAY
EDT 3HR 11A NOON 1P 2P 3P 4P 5P 6P 7P
MAX/MIN -- -- -- -- -- -- -- -- 45°
TEMP 34° 38° 40° 43° 45° 45° 45° 43° 40°
SKY COVER 22% 19% 20% 21% 23% 26% 27% 31% 35%
Clouds
DEW PT 29° 31° 31° 32° 32° 32° 32° 34° 34°
RH 78% 75% 69% 64% 62% 59% 62% 70% 75%
POP 12HR -- -- -- -- -- -- -- -- --
RAIN/SNOW (liq.equ) -- -- -- 0.00in -- -- -- -- --
SNOWFALL -- -- -- 0in -- -- -- -- --
WIND SPEED(MPH) 8 8 8 8 7 7 7 6 5
WIND Gust(MPH) 10 10 10 10 8 8 7 7 6
WIND DIR SW SW W W W W W W NW
DEW Frost Frost Frost -- -- -- -- -- Patchy Frost
HeatIndex 27 31 35 38 40 45 41 39 38
Rain -- -- -- -- -- -- -- -- --
Rain Showers -- -- -- -- -- -- -- -- --
WIND CHILL 27° 32° 35° 38° 41° 41° 41° 39° 37°
SPRAY COND
DRY COND
LIVESTOCK COLDSTRESS



DAY THURSDAY FRIDAY SATURDAY SUNDAY MONDAY TUESDAY
EDT 6HR 8P 9P 10P 11P MIDN 1A 2A 3A 4A 5A 6A 7A 8A 9A 10A 11A NOON 1P 2P 3P 4P 5P 6P 7P 8P 9P 10P 11P 2A 5A 8A 11A 2P 5P 8P 2A 8A 2P 8P 2A 8A 2P 8P 2A 8A 2P 8P 2A 8A 2P 8P
MAX/MIN -- -- -- -- -- -- -- -- -- -- -- -- 29° -- -- -- -- -- -- -- -- -- -- 45° -- -- -- -- -- -- 31° -- -- 52° -- -- 43° 56° -- -- 40° 58° -- -- 38° 43° -- -- 29° 38° --
TEMP 38° 36° 36° 34° 34° 32° 32° 31° 31° 29° 29° 29° 29° 29° 31° 36° 38° 41° 45° 45° 45° 45° 43° 40° 38° 34° 34° 34° 32° 31° 31° 40° 50° 52° 47° 43° 45° 56° 49° 45° 41° 56° 49° 40° 38° 43° 40° 34° 29° 38° 34°
SKY COVER 39% 42% 45% 48% 47% 47% 46% 44% 43% 41% 44% 46% 47% 44% 40% 35% 31% 27% 23% 20% 17% 15% 15% 15% 14% 12% 10% 8% 7% 8% 5% 11% 35% 72% 93% 99% 96% 81% 65% 60% 53% 62% 70% 79% 85% 77% 77% 69% 70% 61% 61%
Clouds
DEW PT 34° 34° 34° 32° 32° 32° 31° 31° 31° 29° 29° 29° 29° 29° 31° 31° 32° 34° 34° 34° 34° 34° 34° 34° 32° 32° 32° 32° 29° 31° 29° 36° 38° 40° 40° 43° 43° 47° 45° 41° 40° 45° 45° 38° 36° 36° 32° 29° 27° 27° 25°
RH 82% 88% 92% 92% 95% 100% 96% 100% 100% 99% 99% 100% 99% 99% 96% 85% 79% 73% 65% 68% 64% 67% 70% 79% 78% 92% 92% 92% 88% 99% 88% 82% 63% 63% 76% 99% 96% 74% 83% 88% 96% 66% 86% 92% 92% 73% 76% 82% 88% 66% 72%
POP 12HR 2% -- -- -- -- -- -- -- -- -- -- -- 5% -- -- -- -- -- -- -- -- -- -- -- 1% -- -- -- -- -- 1% -- -- -- 5% -- 90% -- 62% -- 8% -- 54% -- 60% -- 41% -- 14% -- 14%
RAIN/SNOW (liq.equ) 0.00in -- -- -- -- -- 0.00in -- -- -- -- -- 0.00in -- -- -- -- -- 0.00in -- -- -- -- -- 0.00in -- -- -- 0.00in -- 0.00in -- 0.00in -- 0.00in -- -- -- -- -- -- -- -- -- -- -- -- -- -- -- --
SNOWFALL 0in -- -- -- -- -- 0in -- -- -- -- -- 0in -- -- -- -- -- 0in -- -- -- -- -- 0in -- -- -- 0in -- 0in -- 0in -- 0in -- -- -- -- -- -- -- -- -- -- -- -- -- -- -- --
WIND SPEED(MPH) 5 2 2 5 5 5 5 5 5 6 6 6 7 7 7 7 7 7 7 7 7 7 7 7 7 7 6 6 2 5 2 7 7 7 7 8 7 9 6 1 2 8 8 10 13 14 10 7 7 8 7
WIND DIR NW N N N NE NE NE NE NE NE NE NE E E E E E E E E SE E E E E E E E E SE SE S S S SE S S SW SW S SE S S SW W W W W W W W
HeatIndex 35 34 33 31 29 28 28 27 26 23 23 22 22 22 24 29 33 37 41 41 45 41 38 35 34 29 29 29 29 27 28 36 50 52 47 37 40 56 49 45 40 56 49 32 30 37 32 28 23 31 27
Rain -- -- -- -- -- -- -- -- -- -- -- -- -- -- -- -- -- -- -- -- -- -- -- -- -- -- -- -- -- -- -- -- -- -- -- Definite Likely Slight Chance -- -- -- -- -- -- -- -- -- -- -- -- --
Rain Showers -- -- -- -- -- -- -- -- -- -- -- -- -- -- -- -- -- -- -- -- -- -- -- -- -- -- -- -- -- -- -- -- -- -- -- -- -- -- -- -- -- Slight Chance Likely Likely Chance -- -- -- -- -- --
WIND CHILL 35° -- -- 30° 30° 28° 28° 26° 26° 23° 23° 23° 22° 22° 25° 30° 33° 36° 41° 41° 41° 41° 39° 35° 33° 28° 29° 29° -- 26° -- 35° -- -- -- 38° 41° -- -- -- -- -- -- 34° 30° 36° 34° 28° 22° 32° 28°
SPRAY COND
DRY COND
LIVESTOCK COLDSTRESS

Click on individual weather variable above in left-hand column (ie., TEMP, RH, QPF 12HR) to view state forecast maps






NWS 48 Hr. Forecast Maps,

Regional Hourly Observations For CARROLL County, Kentucky
Issued at 900 AM EST WED NOV 21 2018
NORTHEAST KENTUCKY
  
CITY           SKY/WX    TMP DP  RH WIND       PRES   REMARKS
LEXINGTON      FAIR      31  25  78 SW8       30.34R WCI  23          
COVINGTON      FAIR      30  25  81 SW13      30.28R WCI  20          
FRANKFORT      FAIR      31  25  78 SW10      30.33R WCI  22          


Current NOWCAST not available:
Nowcasts are not issued routinely during fair weather. Only when
precipitation or other significant weather is occuring in this county will these
forecasts be issued. Currently, there is no short term forecast in effect.


Fire Weather Forecast For CARROLL County, KY
Provided by the National Weather Service:

Issued at: Wed Nov 21 09:05:01 EST 2018

CLOUD COVER                     PCldy        PCldy        PCldy
PRECIP TYPE                      None         None         None
CHANCE PRECIP (%)                   0            0            0
TEMP (24H TREND)              45 (+6)      30 (+1)           44
RH % (24H TREND)             59 (-13)     100 (+7)           64
20FTWND-AM(MPH)                 SW  6                      E  6
20FTWND-PM(MPH)                  W  7      Lgt/Var         E  5
PRECIP AMOUNT                    0.00         0.00         0.00
PRECIP DURATION                                                
MIXING HGT(FT-AGL)               2960                      2690
TRANSPORT WND (MPH)              W 18                     SW  5
LAL                                 1            1            1
HAINES INDEX                        3            3            3

REMARKS...None.

.FORECAST FOR DAYS 3 THROUGH 7...
.THURSDAY NIGHT...Mostly clear. Lows around 30. East winds around 5 mph. 
.FRIDAY...Sunny. Highs in the lower 50s. Southeast winds around 5 mph. 
.SATURDAY...Rain. Lows in the lower 40s. Highs in the lower 50s. Southwest
winds 5 to 10 mph. 
.SUNDAY...Mostly cloudy. A chance of showers. Lows around 40. Highs in the
upper 50s. Southeast winds 5 to 10 mph. 
.MONDAY...Mostly cloudy with showers likely. Cooler. Lows around 40. Highs
in the mid 40s. West winds 10 to 15 mph. 
.TUESDAY...Mostly cloudy. Lows in the lower 30s. Highs in the upper 30s.
West winds 10 to 15 mph. 

SPC's Fire Weather Web Tool (Excellent!), SPC's Fire Weather Outlooks, NWS Fire Weather WEB, Fire Danger Class Map,
Keetch-Byram Drought Index, ROMAN Web, Haines Index ,
WFAS's 10-hr Dead Fuel Moist., WFAS's 100-hr Dead Fuel Moist., Probablity of Ignition, Visual blackness Map, Palmer Drought Index, HPC's Rainfall Forecast Maps


Hazardous Weather Outlook For CARROLL County, Kentucky
309 AM EST Wed Nov 21 2018

 DAY ONE  Today and Tonight.

No hazardous weather is expected at this time.

 DAYS TWO THROUGH SEVEN  Thursday through Tuesday.

The probability for widespread hazardous weather is low.

 SPOTTER INFORMATION STATEMENT  

Spotter activation is not expected at this time.

Latest CARROLL County, Kentucky Watches, Warnings and Advisories.
Additional Drought Info.: UKAWC Drought Page, Kentucky Drought Watch


7-Day Forecast For CARROLL County, KY

REST OF TODAY
Mostly sunny. Highs in the mid 40s. West winds 5 to 10 mph.

TONIGHT
Partly cloudy. Lows around 30. Northeast winds 5 to 10 mph.

THANKSGIVING DAY
Partly cloudy in the morning, then clearing. Highs in the mid 40s. East winds around 5 mph.

THURSDAY NIGHT
Clear. Lows around 30. Southeast winds around 5 mph.

FRIDAY
Sunny in the morning, then becoming partly cloudy. Highs in the lower 50s. South winds 5 to 10 mph.

FRIDAY NIGHT
Cloudy. A chance of rain in the evening, then rain after midnight. Warmer with lows in the lower 40s. Chance of rain 90 percent.

SATURDAY
Mostly cloudy. Rain likely, mainly in the morning. Highs in the mid 50s. Chance of rain 70 percent.

SATURDAY NIGHT
Partly cloudy. Lows in the lower 40s.

SUNDAY
Partly cloudy. A chance of showers in the afternoon. Highs in the upper 50s. Chance of rain 50 percent.

SUNDAY NIGHT
Showers likely. Lows in the upper 30s. Chance of rain 60 percent.

MONDAY
Mostly cloudy. A chance of showers in the morning. Cooler with highs in the lower 40s. Chance of rain 50 percent.

MONDAY NIGHT
Mostly cloudy in the evening, then becoming partly cloudy. Lows around 30.

TUESDAY
Partly cloudy. Unseasonably cool with highs in the upper 30s.

Ag Weather Center, Department of Biosystems & Agricultural Engineering, University of Kentucky